Location: Arclight Observatory
(36.5667°N, 87.3333°W)
Time: 03:55:22
(UTC-06:00)

Daily predictions for brighter satellites

Satellite Brightness Start Highest point End
(mag) Time Altitude Azimuth Time Altitude Azimuth Time Altitude Azimuth
Cosmos 2369 Rocket 4.4 03:31:57 20° NE 03:32:21 20° NE 03:36:25 10° ESE
Cosmos 1943 4.1 03:57:04 45° E 03:57:04 45° E 04:02:11 10° NE
CZ-3 R/B 3.6 03:58:02 20° SW 04:09:46 39° S 04:15:52 10° ESE
USA 229 DEB 4.3 04:09:11 10° S 04:15:49 54° ESE 04:22:32 10° NE
USA 229 4.3 04:09:18 10° S 04:15:56 54° ESE 04:22:37 10° NE
Cosmos 1536 4.1 04:24:16 10° SSE 04:28:00 39° E 04:28:29 38° ENE
Lacrosse 5 3.8 04:31:36 19° NNE 04:31:36 19° NNE 04:33:17 10° NNE
ASTRO E2 4.1 04:35:21 33° SSE 04:35:21 33° SSE 04:38:20 10° ESE
Cosmos 1610 Rocket 4.3 04:29:45 10° S 04:35:55 76° W 04:42:13 10° N
Cosmos 2084 4.1 04:39:21 44° ENE 04:39:21 44° ENE 04:42:14 10° NE
Feng Yun 1-1 Rocket 4.0 04:33:13 10° N 04:38:44 73° WNW 04:44:07 10° SSW
Cosmos 44 4.1 04:41:02 41° N 04:41:02 41° N 04:44:35 10° NNE
SJ-6F 4.5 04:41:34 10° NNE 04:45:40 75° ESE 04:49:43 10° S
USA 215 3.5 04:42:22 10° NE 04:48:52 66° SE 04:55:20 10° SW
Okean 1-7 Rocket 3.5 04:52:12 50° N 04:53:20 86° E 04:57:42 10° S
Cosmos 2056 Rocket 4.2 04:57:18 35° SW 04:57:18 35° SW 05:00:51 10° S
Meteor 2-13 Rocket 4.3 04:52:31 10° SSW 04:58:39 71° W 05:04:48 10° N
Thor Agena Rocket 4.2 04:56:08 10° SSW 04:59:42 34° SW 04:59:42 34° SW
Ariane Rocket 3.6 04:58:36 10° NNE 05:03:35 58° ESE 05:08:33 10° S
CRYOSAT 2 4.3 04:59:19 10° S 05:04:09 62° W 05:07:02 24° NNW
Cosmos 1048 Rocket 4.5 04:59:45 10° S 05:04:46 61° ESE 05:09:53 10° NNE
Meteor 1-19 Rocket 4.1 05:00:26 16° NNW 05:05:03 71° W 05:10:44 10° S
Nadezhda 3 Rocket 4.0 05:06:07 10° NNW 05:12:25 64° W 05:18:39 10° S
SKYMED 2 3.4 05:09:23 10° SSE 05:13:42 86° WSW 05:17:10 16° NNW
Cosmos 2369 Rocket 2.3 05:13:48 27° NW 05:16:45 57° WSW 05:22:17 10° S
Meteor 1-11 Rocket 4.0 05:12:33 10° SSW 05:18:03 44° WNW 05:23:30 10° N
COSMOS 2406 4.2 05:16:30 10° S 05:21:53 49° ESE 05:27:20 10° NNE
Cosmos 962 Rocket 4.5 05:15:52 10° SSW 05:21:56 59° W 05:28:08 10° N
Lacrosse 4 Rocket 2.5 05:19:38 13° N 05:23:03 41° ENE 05:26:54 10° SE
Cosmos 1025 Rocket 2.9 05:20:52 15° NNW 05:24:21 65° W 05:28:37 10° S
Meteor 2-4 Rocket 3.7 05:21:05 10° NNW 05:26:37 64° W 05:32:17 10° S
Meteor 1-23 Rocket 4.1 05:21:06 10° NNW 05:26:39 75° W 05:32:12 10° S
Meteor 1-5 Rocket 4.0 05:26:39 10° SSW 05:31:58 70° W 05:37:16 10° N
NOSS 3-1 (C) 3.6 05:27:41 10° SSW 05:33:22 72° ESE 05:39:39 10° NE
SL-24 DEB 4.3 05:32:24 10° S 05:37:08 63° W 05:41:54 10° NNW
SL-27 R/B 3.3 05:33:53 10° S 05:37:20 53° ESE 05:40:53 10° NNE
Atlas Centaur 2 4.3 05:31:21 10° SW 05:38:48 36° SSE 05:45:29 10° E
Cosmos 1943 4.2 05:39:04 19° W 05:41:05 23° WNW 05:45:32 10° N
Meteor 2-19 Rocket 4.4 05:35:32 10° S 05:41:38 79° W 05:47:45 10° N
Cosmos 1943 Rocket 2.1 05:37:50 10° NNW 05:43:20 75° WSW 05:48:49 10° SSE
Cosmos 2341 Rocket 4.4 05:37:36 10° SW 05:43:24 39° WNW 05:49:12 10° N
YAOGAN 1 4.3 05:40:03 10° NNE 05:44:03 36° E 05:48:00 10° SSE
Cosmos 1452 Rocket 4.1 05:41:22 16° NW 05:45:00 36° W 05:49:46 10° SSW
Meteor 2-8 Rocket 4.4 05:41:37 10° NNW 05:47:45 69° W 05:53:49 10° S
Cosmos 864 Rocket 4.5 05:42:19 10° S 05:48:27 89° W 05:54:40 10° N
Helios 1B rocket 4.1 05:45:30 10° SE 05:49:16 35° ENE 05:53:03 10° N
Cosmos 158 Rocket 4.0 05:47:48 10° SSW 05:53:03 69° WNW 05:58:26 10° NNE
Tiangong 2 1.5 05:52:03 20° W 05:53:57 49° SSW 05:57:00 10° SE
Cosmos 1544 Rocket 3.7 05:49:49 10° SSW 05:54:01 48° W 05:58:17 10° N
IDEFIX/ARIANE 42P 3.2 05:53:00 10° NNE 05:58:10 60° E 06:03:18 10° S
USA 129 1.5 05:56:46 10° S 05:58:53 74° WSW 06:01:02 10° NNW
Cosmos 1656 Rocket 4.1 05:54:02 10° NNW 05:59:42 67° ENE 06:05:20 10° SSE
Cosmos 839 Rocket 4.0 05:53:52 10° NNW 06:00:17 80° WSW 06:06:26 10° SSE
COSMO-SKYMED 1 3.8 05:58:27 10° SSW 06:01:55 23° W 06:05:23 10° NW
Cosmos 1461 3.4 05:59:41 10° SW 06:03:44 38° NW 06:07:39 10° NNE
USA 229 DEB 4.4 06:01:07 10° WSW 06:07:04 30° NW 06:13:07 10° NNE
USA 229 4.4 06:01:12 10° WSW 06:07:10 31° NW 06:13:13 10° NNE
PAYLOAD A 4.1 06:04:39 10° N 06:10:02 67° WNW 06:15:24 10° SSW
CZ-2C R/B 2.6 06:05:00 10° NNE 06:10:08 84° ESE 06:15:06 10° SSW
Okean 2 4.4 06:09:15 10° NNW 06:12:46 27° W 06:16:14 10° SSW
Cosmos 1500 3.1 06:09:05 10° SSW 06:12:48 70° W 06:16:34 10° N
ASTRO E2 3.9 06:11:10 10° WSW 06:14:52 35° S 06:18:34 10° ESE
Cosmos 1743 3.6 06:12:55 10° S 06:16:44 56° E 06:20:34 10° NNE
NOSS 3-1 (A) 3.4 06:15:33 10° SW 06:21:18 69° NW 06:27:42 10° NNE
CZ-4 R/B 1.6 06:19:16 10° N 06:23:01 46° WNW 06:26:43 10° SSW
Meteor 1-12 Rocket 4.4 06:20:27 10° SSW 06:25:54 51° WNW 06:31:25 10° N
SMAP 3.1 06:22:09 10° N 06:26:47 67° WNW 06:31:23 10° SSW
